Scottsbluff, NE

2:53 PM MST on December 07, 2019 (GMT -0700)
Heilig

Weather History for KBFF - June, 2019

Change the Weather History Date:

Sunday, June 9, 2019

  Actual Average Record
Temperature  
Mean Temperature 56 °F -  
Max Temperature 68 °F 77 °F 98 °F (1973)
Min Temperature 45 °F 51 °F 36 °F (1966)
Degree Days  
Heating Degree Days 8    
Growing Degree Days 6 (Base 50)    
Moisture  
Dew Point 40 °F    
Average Humidity 57    
Maximum Humidity 83    
Minimum Humidity 31    
Precipitation  
Precipitation 0.00 in - - ()
Sea Level Pressure  
Sea Level Pressure 30.35 in    
Wind  
Wind Speed 10 mph (NW)    
Max Wind Speed 16 mph    
Max Gust Speed 23 mph    
Visibility 10 miles    
Events      
Averages and records for this station are not official NWS values.
T = Trace of Precipitation, MM = Missing Value Source: NWS Daily Summary

Daily Weather History Graph

Daily Weather History Graph

Search for Another Location

Airport or City:

Astronomy

Jun. 09, 2019 Rise Set
Actual Time 5:19 AM MDT 8:28 PM MDT
Civil Twilight 4:45 AM MDT 9:02 PM MDT
Nautical Twilight 4:01 AM MDT 9:46 PM MDT
Astronomical Twilight 3:09 AM MDT 10:38 PM MDT
Moon 12:03 PM MDT (6/9) 1:06 AM MDT (6/9)
Length of Visible Light 16h 17m
Length of Day
15h 09m
Waxing Crescent, 44% of the Moon is Illuminated
Jun 9
Waxing Crescent
Jun 10
First Quarter
Jun 17
Full
Jun 25
Last Quarter
Jul 2
New

Hourly Weather History & Observations

Time (MDT) Temp. Windchill Dew Point Humidity Pressure Visibility Wind Dir Wind Speed Gust Speed Precip Events Conditions
12:53 AM 48.0 °F - 39.9 °F 74% 30.22 in 10.0 mi NNW 9.2 mph - N/A   Overcast
1:53 AM 46.9 °F - 42.1 °F 83% 30.24 in 10.0 mi WNW 11.5 mph - N/A   Overcast
2:53 AM 46.9 °F - 39.9 °F 77% 30.25 in 10.0 mi NW 10.4 mph - N/A   Overcast
3:53 AM 46.9 °F - 41.0 °F 80% 30.27 in 10.0 mi WNW 8.1 mph - N/A   Overcast
4:53 AM 46.9 °F - 41.0 °F 80% 30.30 in 10.0 mi WNW 8.1 mph - N/A   Overcast
5:53 AM 46.9 °F - 41.0 °F 80% 30.33 in 10.0 mi WNW 6.9 mph - N/A   Overcast
6:53 AM 48.0 °F - 39.0 °F 71% 30.35 in 10.0 mi NW 11.5 mph - N/A   Partly Cloudy
7:53 AM 51.1 °F - 39.0 °F 63% 30.37 in 10.0 mi NW 5.8 mph - N/A   Clear
8:53 AM 55.9 °F - 37.9 °F 51% 30.38 in 10.0 mi NNW 16.1 mph - N/A   Clear
9:53 AM 57.9 °F - 39.0 °F 49% 30.39 in 10.0 mi NNW 15.0 mph 23.0 mph N/A   Partly Cloudy
10:53 AM 59.0 °F - 37.0 °F 44% 30.38 in 10.0 mi NW 13.8 mph 23.0 mph N/A   Scattered Clouds
11:53 AM 64.0 °F - 41.0 °F 43% 30.37 in 10.0 mi NNW 12.7 mph 19.6 mph N/A   Scattered Clouds
12:53 PM 63.0 °F - 41.0 °F 45% 30.37 in 10.0 mi West 11.5 mph - N/A   Partly Cloudy
1:53 PM 64.9 °F - 41.0 °F 42% 30.37 in 10.0 mi WNW 11.5 mph 23.0 mph N/A   Scattered Clouds
2:53 PM 64.0 °F - 41.0 °F 43% 30.37 in 10.0 mi WNW 11.5 mph 20.7 mph N/A   Partly Cloudy
3:53 PM 66.9 °F - 44.1 °F 44% 30.35 in 10.0 mi NW 16.1 mph 21.9 mph N/A   Partly Cloudy
4:53 PM 66.0 °F - 43.0 °F 43% 30.35 in 10.0 mi NW 9.2 mph 20.7 mph N/A   Partly Cloudy
5:53 PM 66.9 °F - 44.1 °F 44% 30.34 in 10.0 mi NW 10.4 mph - N/A   Partly Cloudy
6:53 PM 66.0 °F - 42.1 °F 42% 30.34 in 10.0 mi NNW 11.5 mph - N/A   Clear
7:53 PM 60.1 °F - 37.9 °F 44% 30.35 in 10.0 mi NNW 6.9 mph - N/A   Clear
8:53 PM 53.1 °F - 37.0 °F 55% 30.37 in 10.0 mi NNE 6.9 mph - N/A   Clear
9:53 PM 48.9 °F - 37.9 °F 66% 30.40 in 10.0 mi NNE 8.1 mph - N/A   Clear
10:53 PM 48.9 °F - 37.9 °F 66% 30.41 in 10.0 mi South 5.8 mph - N/A   Clear
11:53 PM 45.0 °F 41.2 °F 37.0 °F 74% 30.41 in 10.0 mi East 6.9 mph - N/A   Clear